Regional Weather Roundup
Issued by NWS Cleveland, OH

Home | Current Version | Previous Version | Graphics & Text | Print | Product List | Glossary On
Versions: 1 2 3 4 5 6 7 8 9 10 11 12 13 14 15 16 17 18 19 20 21 22 23 24 25 26 27 28 29 30 31 32 33 34 35 36 37 38 39 40 41 42 43 44 45 46 47 48 49 50
714
ASUS41 KCLE 231910
RWRCLE
OHIO REGIONAL WEATHER ROUNDUP
NATIONAL WEATHER SERVICE WILMINGTON, OH
300 PM EDT SAT SEP 23 2017

NOTE: "FAIR" INDICATES FEW OR NO CLOUDS BELOW 12,000 FEET WITH NO
SIGNIFICANT WEATHER AND/OR OBSTRUCTIONS TO VISIBILITY.

OHZ001>008-015>018-024>027-034-035-043-044-232000-
   NORTHWEST OHIO

CITY           SKY/WX    TMP DP  RH WIND       PRES   REMARKS
DEFIANCE       FAIR      90  64  42 N5        30.12F HX  91
FINDLAY        FAIR      91  61  36 NE7       30.12F HX  91
TOLEDO EXPRESS FAIR      91  66  43 NE7       30.13S HX  93
TOLEDO EXEC    FAIR      88  64  44 E8        30.14F
LIMA           FAIR      91  60  35 NE8       30.12F HX  90
$$

OHZ009>014-019>023-028>033-038-089-232000-
   NORTHEAST OHIO

CITY           SKY/WX    TMP DP  RH WIND       PRES   REMARKS
CLE-HOPKINS    FAIR      90  51  26 N12       30.16F
CLE-LAKEFRONT  FAIR      79  65  62 N6        30.14F
CUY CO. ARPT   SUNNY     88  55  33 NW12      30.16F
LORAIN-ELYRIA  FAIR      86  52  30 NE9       30.15F
ASHTABULA      FAIR      87  54  32 VRB3      30.17F
AKRON-CANTON   FAIR      91  57  31 NE12      30.14F
WOOSTER        FAIR      89  60  37 N8        30.15F
MANSFIELD      FAIR      89  58  34 NE8       30.15F
YOUNGSTOWN     FAIR      88  56  33 NE9       30.16S
$$

OHZ042-051>053-060>062-070>072-077>081-232000-
  SOUTHWEST OHIO

CITY           SKY/WX    TMP DP  RH WIND       PRES   REMARKS
CINC-COVINGTON FAIR      89  63  41 E7        30.10F HX  90
CINC-LUNKEN    FAIR      90  65  43 NE8       30.08F HX  92
HAMILTON       FAIR      89  66  46 E6        30.10F HX  91
DAYTON         FAIR      89  59  36 VRB5      30.12F
WRIGHT-PAT AFB FAIR      90  61  37 E3        30.10F
DAYTON GENERAL FAIR      87  62  43 SW3       30.10F
WILMINGTON     FAIR      88  64  44 CALM      30.10F
$$

OHZ036-037-039>041-045>050-054>059-063>069-073>076-082>088-232000-
  CENTRAL AND SOUTHEAST OHIO

CITY           SKY/WX    TMP DP  RH WIND       PRES   REMARKS
COLUMBUS       FAIR      90  58  33 E8        30.10F
OSU AIRPORT    FAIR      88  58  36 VRB3      30.11F
BOLTON FIELD   SUNNY     90  57  33 E6        30.11F
RICKENBACK AFB FAIR      88  57  34 NE6       30.10S
NEWARK         FAIR      89  57  33 SE6       30.11F
MARION         FAIR      92  53  26 NE12      30.12F
LANCASTER      FAIR      89  57  33 E7        30.11F
ZANESVILLE     FAIR      91  52  26 E8        30.11F
NEW PHILLY     FAIR      91  56  30 VRB3      30.13F
$$




USA.gov is the U.S. government's official web portal to all federal, state and local government web resources and services.